{"data":{"norad_id":49159,"intl_designator":"2021-082AF","name":"STARLINK-3056","alt_names":[],"object_type":"PAYLOAD","status":"ACTIVE","operator":null,"country":"US","launch_date":"2021-09-14","launch_site_code":"AFWTR","launch_vehicle":null,"mission":null,"orbit_class":"UNKNOWN","rcs_meters":null,"size_class":null,"mass_kg":null,"dimensions":null,"purposes":["comms"],"wikipedia_slug":null,"has_3d_model":false,"image_url":null,"decayed_at":null,"tle_current":{"epoch":"2026-05-25T03:05:53.419200Z","epoch_age_seconds":70777,"freshness":"FRESH","line1":"1 49159U 21082AF  26145.12909050 -.00001069  00000+0 -81783-4 0  9993","line2":"2 49159  69.9994 101.7264 0003275 271.7034  88.3749 14.98324925258526","mean_motion":14.98324925,"eccentricity":0.0003275,"inclination_deg":69.9994,"raan_deg":101.7264,"arg_perigee_deg":271.7034,"mean_anomaly_deg":88.3749,"bstar":-8.1783e-5,"rev_number":25852,"period_min":96.107324651227,"perigee_km":569.79539169599,"apogee_km":574.34777831917,"semimajor_km":6950.2085850076,"source":"CELESTRAK","updated_at":"2026-05-25T13:38:16.790075Z"}}}